Regional Weather Roundup
Issued by NWS Charleston, SC

Current Version | Previous Version | Graphics & Text | Print | Product List | Glossary On
Versions: 1 2 3 4 5 6 7 8 9 10 11 12 13 14 15 16 17 18 19 20 21 22 23 24 25 26 27 28 29 30 31 32 33 34 35 36 37 38 39 40 41 42 43 44 45 46 47 48 49 50
848
ASUS42 KCHS 212227
RWRCHS

REGIONAL WEATHER ROUNDUP
NATIONAL WEATHER SERVICE CHARLESTON SC
600 PM EDT MON AUG 21 2017

NOTE: "FAIR" INDICATES FEW OR NO CLOUDS BELOW 12,000 FEET WITH NO
SIGNIFICANT WEATHER AND/OR OBSTRUCTIONS TO VISIBILITY.

NOT ALL STATIONS ARE QUALITY CONTROLLED. USE DATA WITH CAUTION...
ESPECIALLY DEWPOINT OBSERVATIONS.

SCZ027-030-031-034>040-042>050-212300-
...SOUTHEAST SOUTH CAROLINA...

CITY           SKY/WX    TMP DP  RH WIND       PRES   REMARKS
N CHARLESTON   LGT RAIN  77  76  96 CALM      30.14F
WATERFRONT PRK   N/A     82  77  84 CALM      29.99F HX  90
JOHNS ISLAND   FAIR      82  77  83 CALM      30.14F HX  91
PINOPOLIS        N/A     79  73  83 CALM      30.08F
MONCKS CORNER  FAIR      73  73 100 CALM      30.14F
SUMMERVILLE    DRIZZLE   73  73 100 W3        30.15F
BEAUFORT MCAS  LGT RAIN  78  76  93 E5        30.16F
BEAUFORT ARPT  RAIN      75  73  94 CALM      30.15F
HILTON HEAD IS CLOUDY    84  75  74 E5        30.16S HX  92
WALTERBORO     LGT RAIN  73  72  94 CALM      30.16F
ALLENDALE      NOT AVBL

...SOUTHERN MIDLANDS AND PEE DEE...

CITY           SKY/WX    TMP DP  RH WIND       PRES   REMARKS
GEORGETOWN     FAIR      81  79  94 SE7       30.15F
KINGSTREE      FAIR      82  77  83 SE5       30.14F HX  91
ORANGEBURG     CLOUDY    82  72  71 S9        30.15S
BARNWELL       FAIR      81  75  83 S5        30.15S
AIKEN          MOCLDY    82  72  69 S7        30.18R
MANNING        FAIR      81  77  89 S13       30.14F
COLUMBIA       CLOUDY    92  71  50 S9        30.11F HX  98
SUMTER         CLOUDY    90  73  56 SE12      30.11S HX  97
FLORENCE       MOSUNNY   88  75  65 SE10      30.14F HX  97
MYRTLE BEACH   MOSUNNY   84  75  74 SE8       30.16S HX  92
N MYRTLE BEACH PTSUNNY   84  77  79 SE6       30.15S HX  94

$$

GAZ063-065-086>088-099>101-113>116-118-119-134>141-150-212300-
...SOUTHEAST GEORGIA...

CITY           SKY/WX    TMP DP  RH WIND       PRES   REMARKS
SAVANNAH ARPT  CLOUDY    82  77  84 S3        30.16S HX  90
HUNTER AAF     CLOUDY    80  76  86 CALM      30.12F
FORT STEWART   CLOUDY    80  73  79 E5        30.13F
STATESBORO     PTSUNNY   83  71  66 CALM      30.15F
SYLVANIA         N/A     82  79  90 CALM      30.16F HX  92
CLAXTON        FAIR      83  78  82 CALM      30.15F HX  93

...CSRA...CENTRAL AND FAR SOUTHEAST GEORGIA...

CITY           SKY/WX    TMP DP  RH WIND       PRES   REMARKS
THOMSON        MOSUNNY   89  73  59 SW8       30.18F HX  96
AUGUSTA-BUSH   CLOUDY    87  75  67 SE13      30.13S HX  96
AUGUSTA-DANIEL MOSUNNY   88  69  53 SE13G24   30.15R HX  92
SWAINSBORO     FAIR      81  73  78 SE3       30.16F
VIDALIA        MOSUNNY   84  77  79 SE5       30.15S HX  94
EASTMAN        FAIR      87  64  45 S7        30.16F
HAZLEHURST     FAIR      88  62  42 S5        30.13F
ALMA           CLOUDY    87  74  64 VRB5      30.14S HX  95
WAYCROSS       CLOUDY    83  73  70 E6        30.14S
JESUP          MOCLDY    82  73  74 SE3       30.14F
BAXLEY         FAIR      84  73  70 SE7       30.13F HX  91
BRUNSWICK      CLOUDY    81  72  74 E8        30.14F
SAINT SIMONS   CLOUDY    80  75  84 E12       30.14S

$$

SCZ027-028-034-036>038-045-046-048>050-GAZ119-141-212300-
...LAKE AND SUPPLEMENTAL COASTAL OBSERVATIONS...

STATION/POSITION TIME  TEMP    WIND        PRES    WAVE   SWELL
                       AIR SEA DIR/SP/G            HT/PER HT/PER/DIR
                 (UTC) (F)     (DEG/KT/KT) (MB)    (FT/S) (FT/S/D)
WINYAH BAY       2145   83     120/  6     1021.0S
LAKE MURRAY      2220   91     160/  8/  9 1018.6F
ACE BASIN NERRS  2145   76        CALM     1021.0S
FORT PULASKI     2200   83 87  150/  4/  6 1021.1
SAPELO ISLAND    2200   78      70/  1     1021.0

$$

ANZ835-935-AMZ111-154-330-350-352-354-370-450-454-472-212300-
...C-MAN AND BUOY OBSERVATIONS...

STATION/POSITION TIME  TEMP    WIND        PRES    WAVE   SWELL
                       AIR SEA DIR/SP/G            HT/PER HT/PER/DIR
                 (UTC) (F)     (DEG/KT/KT) (MB)    (FT/S) (FT/S/D)
BUOY 41004       2210   82 85  160/ 12/ 16 1020.6
BUOY 41008       2150   81 85  100/  4/  6 1020.6S   3/ 8   2/130/ 8
FOLLY BEACH CMAN 2200   83      80/  1/  2 1021.4F
CAPERS NEARSHORE 2208   84 86  160/  6/  8 1020.5F
FRIPP NEARSHORE  2208   84     110/  8/ 10 1020.5F


STATION/POSITION TIME  TEMP    WIND        PRES    WAVE   SWELL
                       AIR SEA DIR/SP/G            HT/PER HT/PER/DIR
                 (UTC) (F)     (DEG/KT/KT) (MB)    (FT/S) (FT/S/D)
5E ST. MARYS GA  2130      84                N/A     2/ 8
FRYING PAN BUOY  2210   83 84  150/ 10/ 12 1020.7
BUOY 41025       2150   83 85  160/  4/  6 1021.4S   2/ 8   2/100/ 8
CAPE LOOKOUT NC  2200   81     120/  3/  4 1021.0S
BUOY 41002       2150   83 85  140/  6/  6 1021.0R   3/ 9   3/100/ 9
BUOY 41010       2210   85 85  100/ 10/ 12 1019.3
ST AUGUSTINE FL  2200   83 83   80/  6/  7 1020.1F


$$




USA.gov is the U.S. government's official web portal to all federal, state and local government web resources and services.